| time (UTC) | temp F | wind direction | speed MPH | gust MPH | rain 1hr in | rain 24hr in | rain mn in | humidity % | barometer mb |
| 20260510195237 | 53 | 208 | 0.0 | 0.0 | 0.00 | 0.40 | 0.40 | 93 | 1014.3 |
| 20260510194739 | 53 | 208 | 0.0 | 0.0 | 0.00 | 0.40 | 0.40 | 93 | 1014.2 |
| 20260510194303 | 53 | 208 | 0.0 | 0.0 | 0.00 | 0.40 | 0.40 | 93 | 1014.2 |
| 20260510193722 | 53 | 208 | 0.0 | 0.0 | 0.00 | 0.40 | 0.40 | 93 | 1014.2 |
| 20260510193224 | 53 | 208 | 0.0 | 0.0 | 0.00 | 0.40 | 0.40 | 93 | 1014.1 |
| 20260510192734 | 53 | 208 | 0.0 | 0.0 | 0.00 | 0.40 | 0.40 | 93 | 1014.0 |
| 20260510192257 | 53 | 208 | 0.0 | 0.0 | 0.00 | 0.40 | 0.40 | 93 | 1014.0 |
| 20260510191740 | 53 | 208 | 0.0 | 0.0 | 0.00 | 0.40 | 0.40 | 93 | 1013.9 |
| 20260510191232 | 53 | 208 | 0.0 | 0.0 | 0.00 | 0.40 | 0.40 | 93 | 1013.8 |
| 20260510190740 | 53 | 208 | 0.0 | 0.0 | 0.00 | 0.40 | 0.40 | 93 | 1013.8 |
| 20260510190227 | 53 | 208 | 0.0 | 0.0 | 0.00 | 0.40 | 0.40 | 93 | 1013.8 |
| 20260510185751 | 53 | 208 | 0.0 | 0.0 | 0.00 | 0.40 | 0.40 | 93 | 1013.8 |
| 20260510185249 | 53 | 208 | 0.0 | 0.0 | 0.00 | 0.40 | 0.40 | 93 | 1013.8 |
| 20260510184733 | 53 | 208 | 0.0 | 0.0 | 0.00 | 0.40 | 0.40 | 93 | 1013.7 |
| 20260510184220 | 54 | 208 | 0.0 | 0.0 | 0.00 | 0.40 | 0.40 | 93 | 1013.7 |
| 20260510183725 | 54 | 208 | 0.0 | 0.0 | 0.00 | 0.40 | 0.40 | 93 | 1013.7 |
| 20260510183250 | 54 | 208 | 0.0 | 0.0 | 0.00 | 0.40 | 0.40 | 93 | 1013.7 |
| 20260510182728 | 54 | 208 | 0.0 | 0.0 | 0.00 | 0.40 | 0.40 | 93 | 1013.7 |
| 20260510182231 | 54 | 208 | 0.0 | 0.0 | 0.01 | 0.40 | 0.40 | 93 | 1013.7 |
| 20260510181716 | 54 | 208 | 0.0 | 0.0 | 0.01 | 0.40 | 0.40 | 93 | 1013.6 |
| 20260510181233 | 54 | 208 | 0.0 | 0.0 | 0.01 | 0.40 | 0.40 | 93 | 1013.7 |
| 20260510180735 | 54 | 208 | 0.0 | 0.0 | 0.01 | 0.40 | 0.40 | 93 | 1013.7 |
| 20260510180218 | 54 | 204 | 0.0 | 0.0 | 0.02 | 0.40 | 0.40 | 93 | 1013.6 |
| 20260510175801 | 54 | 215 | 0.0 | 0.0 | 0.02 | 0.40 | 0.40 | 92 | 1013.6 |
| 20260510175242 | 55 | 199 | 0.0 | 0.0 | 0.02 | 0.40 | 0.40 | 93 | 1013.6 |
| 20260510174736 | 55 | 193 | 0.0 | 0.0 | 0.02 | 0.40 | 0.40 | 93 | 1013.6 |
| 20260510174240 | 54 | 186 | 0.0 | 0.0 | 0.02 | 0.40 | 0.40 | 93 | 1013.4 |
| 20260510173747 | 54 | 248 | 0.0 | 0.0 | 0.03 | 0.40 | 0.40 | 93 | 1013.4 |
| 20260510173237 | 54 | 248 | 0.0 | 0.0 | 0.03 | 0.40 | 0.40 | 93 | 1013.3 |
| 20260510172721 | 54 | 248 | 0.0 | 0.0 | 0.04 | 0.40 | 0.40 | 93 | 1013.4 |
| 20260510172217 | 54 | 248 | 0.0 | 0.0 | 0.03 | 0.39 | 0.39 | 92 | 1013.6 |
| 20260510171748 | 54 | 248 | 0.0 | 0.0 | 0.03 | 0.39 | 0.39 | 92 | 1013.7 |
| 20260510171217 | 54 | 248 | 0.0 | 0.0 | 0.03 | 0.39 | 0.39 | 92 | 1013.7 |
| 20260510170726 | 54 | 250 | 0.0 | 0.0 | 0.03 | 0.39 | 0.39 | 92 | 1013.8 |
| 20260510170224 | 54 | 244 | 0.0 | 0.0 | 0.02 | 0.39 | 0.39 | 92 | 1013.7 |
| 20260510165742 | 54 | 252 | 0.0 | 0.0 | 0.02 | 0.38 | 0.38 | 92 | 1013.8 |
| 20260510165232 | 54 | 258 | 0.0 | 0.0 | 0.03 | 0.38 | 0.38 | 92 | 1013.7 |
| 20260510164736 | 54 | 257 | 0.0 | 0.0 | 0.05 | 0.38 | 0.38 | 92 | 1013.7 |
| 20260510164227 | 54 | 259 | 0.0 | 0.0 | 0.06 | 0.38 | 0.38 | 92 | 1013.6 |
| 20260510163726 | 53 | 246 | 0.0 | 0.0 | 0.08 | 0.38 | 0.37 | 92 | 1013.7 |
| 20260510163234 | 53 | 249 | 0.0 | 0.0 | 0.09 | 0.38 | 0.37 | 92 | 1013.7 |
| 20260510162739 | 53 | 252 | 0.0 | 0.0 | 0.10 | 0.37 | 0.36 | 92 | 1013.6 |
| 20260510162216 | 53 | 257 | 0.0 | 0.0 | 0.11 | 0.37 | 0.36 | 92 | 1013.6 |
| 20260510161728 | 53 | 242 | 0.0 | 0.0 | 0.11 | 0.37 | 0.36 | 92 | 1013.6 |
| 20260510161249 | 54 | 240 | 0.0 | 0.0 | 0.13 | 0.37 | 0.36 | 92 | 1013.7 |
| 20260510160738 | 54 | 254 | 0.0 | 0.0 | 0.15 | 0.37 | 0.36 | 92 | 1013.5 |
| 20260510160227 | 53 | 257 | 0.0 | 0.0 | 0.17 | 0.37 | 0.36 | 92 | 1013.4 |
| 20260510155739 | 53 | 255 | 0.0 | 0.0 | 0.17 | 0.37 | 0.36 | 91 | 1013.4 |
| 20260510155232 | 54 | 253 | 0.0 | 0.0 | 0.15 | 0.35 | 0.35 | 90 | 1013.6 |
| 20260510154738 | 54 | 264 | 0.0 | 0.0 | 0.13 | 0.34 | 0.33 | 91 | 1013.6 |
| 20260510154239 | 55 | 263 | 0.0 | 0.0 | 0.13 | 0.33 | 0.32 | 90 | 1013.4 |
| 20260510153758 | 55 | 277 | 0.0 | 0.0 | 0.10 | 0.34 | 0.30 | 91 | 1013.2 |
| 20260510153219 | 55 | 264 | 0.0 | 0.0 | 0.08 | 0.31 | 0.28 | 91 | 1013.0 |
| 20260510152726 | 55 | 269 | 0.0 | 2.0 | 0.06 | 0.30 | 0.26 | 90 | 1013.1 |
| 20260510152241 | 56 | 269 | 0.0 | 2.0 | 0.06 | 0.29 | 0.25 | 89 | 1013.0 |
| 20260510151718 | 56 | 257 | 0.0 | 0.0 | 0.06 | 0.29 | 0.25 | 89 | 1013.1 |
| 20260510151239 | 57 | 254 | 0.0 | 0.0 | 0.03 | 0.27 | 0.23 | 89 | 1013.1 |
| 20260510150716 | 57 | 253 | 0.0 | 0.0 | 0.02 | 0.25 | 0.21 | 88 | 1012.7 |
| 20260510150226 | 57 | 257 | 0.0 | 0.0 | 0.00 | 0.24 | 0.20 | 88 | 1012.7 |
| 20260510145737 | 57 | 257 | 0.0 | 0.0 | 0.00 | 0.24 | 0.20 | 87 | 1012.7 |
| 20260510145235 | 57 | 255 | 0.0 | 0.0 | 0.00 | 0.24 | 0.20 | 86 | 1012.7 |
| 20260510144744 | 57 | 271 | 0.0 | 0.0 | 0.00 | 0.24 | 0.20 | 87 | 1012.7 |
| 20260510144223 | 57 | 248 | 0.0 | 0.0 | 0.00 | 0.24 | 0.20 | 87 | 1012.8 |
| 20260510143724 | 57 | 250 | 0.0 | 3.0 | 0.00 | 0.24 | 0.20 | 87 | 1012.9 |
| 20260510143226 | 58 | 245 | 0.0 | 5.0 | 0.00 | 0.24 | 0.20 | 88 | 1013.0 |
| 20260510142716 | 58 | 280 | 0.0 | 5.0 | 0.01 | 0.24 | 0.20 | 88 | 1012.9 |
| 20260510142231 | 58 | 232 | 0.0 | 1.0 | 0.01 | 0.24 | 0.20 | 90 | 1012.9 |
| 20260510141736 | 57 | 246 | 0.0 | 0.0 | 0.01 | 0.24 | 0.20 | 91 | 1013.0 |
| 20260510141238 | 57 | 252 | 0.0 | 0.0 | 0.02 | 0.24 | 0.20 | 93 | 1013.0 |
| 20260510140740 | 56 | 221 | 0.0 | 6.0 | 0.02 | 0.24 | 0.20 | 93 | 1013.2 |
| 20260510140230 | 55 | 267 | 1.0 | 6.0 | 0.03 | 0.24 | 0.20 | 93 | 1013.4 |
| 20260510135738 | 55 | 256 | 0.0 | 4.0 | 0.06 | 0.24 | 0.20 | 92 | 1013.5 |
| 20260510135228 | 55 | 255 | 0.0 | 4.0 | 0.06 | 0.24 | 0.20 | 92 | 1013.6 |
| 20260510134739 | 55 | 258 | 0.0 | 0.0 | 0.06 | 0.24 | 0.20 | 92 | 1013.6 |
| 20260510134253 | 55 | 273 | 0.0 | 0.0 | 0.06 | 0.24 | 0.20 | 93 | 1013.6 |
| 20260510133727 | 55 | 251 | 0.0 | 0.0 | 0.07 | 0.24 | 0.20 | 93 | 1013.6 |
| 20260510133220 | 54 | 262 | 0.0 | 0.0 | 0.08 | 0.24 | 0.20 | 92 | 1013.6 |
| 20260510132717 | 54 | 266 | 0.0 | 0.0 | 0.07 | 0.23 | 0.19 | 92 | 1013.6 |
| 20260510132238 | 54 | 240 | 0.0 | 0.0 | 0.08 | 0.23 | 0.19 | 92 | 1013.7 |
| 20260510131742 | 54 | 202 | 0.0 | 0.0 | 0.08 | 0.23 | 0.19 | 92 | 1013.6 |
| 20260510131219 | 54 | 266 | 0.0 | 0.0 | 0.07 | 0.22 | 0.18 | 92 | 1013.6 |
| 20260510130717 | 54 | 244 | 0.0 | 0.0 | 0.07 | 0.22 | 0.18 | 92 | 1013.6 |
| 20260510130219 | 54 | 227 | 0.0 | 0.0 | 0.06 | 0.20 | 0.17 | 91 | 1013.6 |
| 20260510125744 | 54 | 227 | 0.0 | 0.0 | 0.03 | 0.18 | 0.14 | 91 | 1013.7 |
| 20260510125245 | 54 | 263 | 0.0 | 0.0 | 0.02 | 0.17 | 0.13 | 91 | 1013.5 |
| 20260510124718 | 55 | 261 | 0.0 | 0.0 | 0.02 | 0.17 | 0.13 | 92 | 1013.3 |
| 20260510124220 | 54 | 260 | 0.0 | 0.0 | 0.02 | 0.17 | 0.13 | 92 | 1013.1 |
| 20260510123728 | 54 | 252 | 0.0 | 0.0 | 0.02 | 0.17 | 0.13 | 91 | 1014.1 |
| 20260510123224 | 54 | 258 | 0.0 | 0.0 | 0.01 | 0.16 | 0.12 | 91 | 1014.3 |
| 20260510122730 | 54 | 245 | 0.0 | 0.0 | 0.01 | 0.16 | 0.12 | 90 | 1014.1 |
| 20260510122235 | 55 | 271 | 0.0 | 12.0 | 0.02 | 0.16 | 0.12 | 89 | 1014.2 |
| 20260510121728 | 56 | 259 | 7.0 | 12.0 | 0.01 | 0.15 | 0.11 | 91 | 1014.2 |
| 20260510121233 | 56 | 252 | 2.0 | 10.0 | 0.02 | 0.15 | 0.11 | 91 | 1013.7 |
| 20260510120756 | 57 | 242 | 1.0 | 10.0 | 0.03 | 0.15 | 0.11 | 92 | 1013.6 |
| 20260510120236 | 56 | 196 | 0.0 | 8.0 | 0.03 | 0.15 | 0.11 | 92 | 1013.6 |
| 20260510115740 | 56 | 178 | 3.0 | 8.0 | 0.04 | 0.15 | 0.11 | 92 | 1013.8 |
| 20260510115240 | 56 | 217 | 1.0 | 5.0 | 0.05 | 0.15 | 0.11 | 92 | 1014.1 |
| 20260510114736 | 56 | 189 | 0.0 | 0.0 | 0.06 | 0.15 | 0.11 | 92 | 1014.0 |
| 20260510114219 | 55 | 184 | 0.0 | 0.0 | 0.06 | 0.15 | 0.11 | 91 | 1014.1 |
| 20260510113727 | 55 | 246 | 0.0 | 0.0 | 0.06 | 0.15 | 0.11 | 91 | 1014.2 |
| 20260510113241 | 55 | 232 | 0.0 | 0.0 | 0.06 | 0.15 | 0.11 | 91 | 1014.3 |
| 20260510112749 | 55 | 202 | 0.0 | 0.0 | 0.06 | 0.15 | 0.11 | 91 | 1014.4 |
| 20260510112300 | 55 | 199 | 0.0 | 0.0 | 0.06 | 0.14 | 0.10 | 91 | 1014.5 |
| 20260510111735 | 55 | 239 | 0.0 | 0.0 | 0.06 | 0.14 | 0.10 | 91 | 1014.4 |
| 20260510111234 | 55 | 222 | 0.0 | 0.0 | 0.05 | 0.13 | 0.09 | 90 | 1014.3 |
| 20260510110741 | 55 | 203 | 0.0 | 0.0 | 0.04 | 0.13 | 0.09 | 89 | 1014.5 |
| 20260510110237 | 55 | 205 | 0.0 | 0.0 | 0.03 | 0.12 | 0.08 | 89 | 1014.5 |
| 20260510105725 | 55 | 196 | 0.0 | 0.0 | 0.02 | 0.11 | 0.07 | 89 | 1014.4 |
| 20260510105240 | 56 | 202 | 0.0 | 0.0 | 0.02 | 0.10 | 0.06 | 88 | 1014.4 |
| 20260510104720 | 56 | 196 | 0.0 | 0.0 | 0.01 | 0.09 | 0.06 | 89 | 1014.4 |
| 20260510104218 | 56 | 257 | 0.0 | 0.0 | 0.01 | 0.09 | 0.06 | 89 | 1014.5 |
| 20260510103750 | 56 | 196 | 0.0 | 0.0 | 0.01 | 0.11 | 0.06 | 88 | 1014.4 |
| 20260510103229 | 56 | 182 | 0.0 | 9.0 | 0.01 | 0.11 | 0.06 | 87 | 1014.4 |
| 20260510102731 | 56 | 187 | 1.0 | 9.0 | 0.01 | 0.11 | 0.06 | 86 | 1014.6 |
| 20260510102232 | 56 | 182 | 1.0 | 12.0 | 0.00 | 0.10 | 0.05 | 86 | 1014.6 |
| 20260510101729 | 56 | 182 | 2.0 | 12.0 | 0.00 | 0.10 | 0.05 | 85 | 1014.6 |
| 20260510101258 | 57 | 187 | 0.0 | 9.0 | 0.00 | 0.10 | 0.05 | 85 | 1014.5 |
| 20260510100740 | 57 | 171 | 1.0 | 9.0 | 0.00 | 0.10 | 0.05 | 85 | 1014.5 |
| 20260510100229 | 57 | 198 | 0.0 | 0.0 | 0.00 | 0.10 | 0.05 | 84 | 1014.5 |
| 20260510095827 | 57 | 236 | 0.0 | 2.0 | 0.00 | 0.10 | 0.05 | 82 | 1012.9 |
| 20260510095240 | 57 | 223 | 0.0 | 2.0 | 0.00 | 0.10 | 0.05 | 81 | 1014.4 |
| 20260510094803 | 58 | 225 | 0.0 | 0.0 | 0.00 | 0.10 | 0.05 | 79 | 1014.3 |
| 20260510094245 | 58 | 215 | 0.0 | 0.0 | 0.00 | 0.10 | 0.05 | 77 | 1014.1 |
| 20260510093738 | 58 | 231 | 0.0 | 0.0 | 0.00 | 0.10 | 0.05 | 77 | 1014.2 |
| 20260510093235 | 58 | 217 | 0.0 | 0.0 | 0.00 | 0.10 | 0.05 | 77 | 1014.2 |
| 20260510092743 | 58 | 260 | 0.0 | 0.0 | 0.00 | 0.10 | 0.05 | 78 | 1014.2 |
| 20260510092223 | 58 | 230 | 0.0 | 0.0 | 0.00 | 0.10 | 0.05 | 78 | 1014.1 |
| 20260510091735 | 58 | 213 | 0.0 | 0.0 | 0.00 | 0.10 | 0.05 | 79 | 1014.0 |
| 20260510091252 | 58 | 256 | 0.0 | 0.0 | 0.00 | 0.10 | 0.05 | 78 | 1014.0 |
| 20260510090804 | 58 | 197 | 0.0 | 0.0 | 0.00 | 0.10 | 0.05 | 78 | 1013.9 |
| 20260510090232 | 58 | 206 | 0.0 | 0.0 | 0.00 | 0.10 | 0.05 | 78 | 1013.9 |
| 20260510085735 | 58 | 211 | 0.0 | 0.0 | 0.00 | 0.10 | 0.05 | 77 | 1013.8 |
| 20260510085236 | 57 | 203 | 0.0 | 0.0 | 0.00 | 0.10 | 0.05 | 78 | 1013.8 |
| 20260510084717 | 57 | 215 | 0.0 | 0.0 | 0.00 | 0.10 | 0.05 | 80 | 1013.8 |
| 20260510084235 | 57 | 190 | 0.0 | 0.0 | 0.00 | 0.10 | 0.05 | 81 | 1013.9 |
| 20260510083737 | 57 | 229 | 0.0 | 0.0 | 0.00 | 0.10 | 0.05 | 83 | 1013.8 |
| 20260510083216 | 56 | 229 | 0.0 | 0.0 | 0.00 | 0.10 | 0.05 | 83 | 1013.7 |
| 20260510082746 | 56 | 194 | 0.0 | 0.0 | 0.00 | 0.10 | 0.05 | 84 | 1013.8 |
| 20260510082229 | 56 | 194 | 0.0 | 0.0 | 0.00 | 0.10 | 0.05 | 87 | 1013.9 |
| 20260510081717 | 55 | 157 | 0.0 | 0.0 | 0.00 | 0.10 | 0.05 | 87 | 1013.9 |
| 20260510081237 | 55 | 232 | 0.0 | 0.0 | 0.00 | 0.10 | 0.05 | 88 | 1013.9 |
| 20260510080731 | 55 | 181 | 0.0 | 0.0 | 0.00 | 0.10 | 0.05 | 89 | 1013.9 |
| 20260510080230 | 55 | 182 | 0.0 | 0.0 | 0.00 | 0.10 | 0.05 | 90 | 1013.9 |
| 20260510075731 | 55 | 202 | 0.0 | 0.0 | 0.00 | 0.10 | 0.05 | 91 | 1013.8 |
| 20260510075219 | 55 | 181 | 0.0 | 4.0 | 0.00 | 0.10 | 0.05 | 92 | 1013.9 |
| 20260510074726 | 55 | 179 | 1.0 | 4.0 | 0.00 | 0.10 | 0.05 | 93 | 1013.9 |
| 20260510074233 | 54 | 180 | 0.0 | 0.0 | 0.00 | 0.10 | 0.05 | 93 | 1013.9 |
| 20260510073724 | 54 | 196 | 0.0 | 0.0 | 0.00 | 0.10 | 0.05 | 93 | 1013.9 |
| 20260510073218 | 54 | 188 | 0.0 | 0.0 | 0.00 | 0.10 | 0.05 | 93 | 1014.0 |
| 20260510072733 | 54 | 196 | 0.0 | 0.0 | 0.00 | 0.10 | 0.05 | 93 | 1013.9 |
| 20260510072244 | 53 | 184 | 0.0 | 0.0 | 0.00 | 0.10 | 0.05 | 93 | 1013.9 |
| 20260510071720 | 53 | 185 | 0.0 | 0.0 | 0.00 | 0.10 | 0.05 | 93 | 1013.9 |
| 20260510071223 | 53 | 194 | 0.0 | 0.0 | 0.00 | 0.10 | 0.05 | 93 | 1014.1 |
| 20260510070723 | 53 | 177 | 0.0 | 0.0 | 0.00 | 0.10 | 0.05 | 93 | 1014.2 |
| 20260510070225 | 53 | 202 | 0.0 | 0.0 | 0.00 | 0.10 | 0.05 | 93 | 1014.1 |
| 20260510065725 | 53 | 183 | 0.0 | 0.0 | 0.00 | 0.10 | 0.05 | 93 | 1014.0 |
| 20260510065241 | 53 | 189 | 0.0 | 0.0 | 0.01 | 0.10 | 0.05 | 93 | 1013.9 |
| 20260510064737 | 53 | 183 | 0.0 | 0.0 | 0.01 | 0.10 | 0.05 | 93 | 1013.9 |
| 20260510064219 | 53 | 187 | 0.0 | 0.0 | 0.01 | 0.10 | 0.05 | 93 | 1013.8 |
| 20260510063745 | 53 | 184 | 0.0 | 0.0 | 0.01 | 0.10 | 0.05 | 93 | 1013.7 |
| 20260510063222 | 53 | 183 | 0.0 | 0.0 | 0.01 | 0.10 | 0.05 | 93 | 1013.8 |
| 20260510062738 | 53 | 183 | 0.0 | 0.0 | 0.01 | 0.10 | 0.05 | 93 | 1013.7 |
| 20260510062230 | 53 | 183 | 0.0 | 0.0 | 0.01 | 0.10 | 0.05 | 93 | 1013.7 |
| 20260510061725 | 53 | 183 | 0.0 | 0.0 | 0.01 | 0.10 | 0.05 | 93 | 1013.7 |
| 20260510061226 | 53 | 183 | 0.0 | 0.0 | 0.01 | 0.10 | 0.05 | 93 | 1013.6 |
| 20260510060738 | 53 | 183 | 0.0 | 0.0 | 0.01 | 0.10 | 0.05 | 93 | 1013.6 |
| 20260510060230 | 53 | 183 | 0.0 | 0.0 | 0.01 | 0.10 | 0.05 | 93 | 1013.5 |
| 20260510055731 | 53 | 183 | 0.0 | 0.0 | 0.01 | 0.10 | 0.05 | 93 | 1013.5 |
| 20260510055231 | 53 | 183 | 0.0 | 0.0 | 0.02 | 0.09 | 0.04 | 93 | 1013.7 |
| 20260510054727 | 52 | 183 | 0.0 | 0.0 | 0.03 | 0.09 | 0.04 | 92 | 1013.6 |
| 20260510054241 | 52 | 183 | 0.0 | 0.0 | 0.03 | 0.09 | 0.04 | 92 | 1013.6 |
| 20260510053720 | 52 | 183 | 0.0 | 0.0 | 0.03 | 0.09 | 0.04 | 92 | 1013.6 |
| 20260510053235 | 52 | 183 | 0.0 | 0.0 | 0.03 | 0.09 | 0.04 | 92 | 1013.6 |
| 20260510052736 | 52 | 183 | 0.0 | 0.0 | 0.03 | 0.09 | 0.04 | 92 | 1013.5 |
| 20260510052258 | 52 | 183 | 0.0 | 0.0 | 0.03 | 0.09 | 0.04 | 92 | 1013.6 |
| 20260510051727 | 52 | 183 | 0.0 | 0.0 | 0.03 | 0.09 | 0.04 | 92 | 1013.7 |
| 20260510051232 | 52 | 183 | 0.0 | 0.0 | 0.03 | 0.09 | 0.04 | 92 | 1013.7 |
| 20260510050738 | 52 | 183 | 0.0 | 0.0 | 0.03 | 0.09 | 0.04 | 91 | 1013.7 |
| 20260510050236 | 52 | 183 | 0.0 | 0.0 | 0.04 | 0.09 | 0.04 | 91 | 1013.6 |
| 20260510045735 | 52 | 183 | 0.0 | 0.0 | 0.04 | 0.09 | 0.04 | 91 | 1013.5 |
| 20260510045237 | 52 | 183 | 0.0 | 0.0 | 0.02 | 0.08 | 0.02 | 91 | 1013.6 |
| 20260510044716 | 52 | 183 | 0.0 | 0.0 | 0.01 | 0.06 | 0.01 | 91 | 1013.6 |
| 20260510044235 | 52 | 183 | 0.0 | 0.0 | 0.01 | 0.06 | 0.01 | 91 | 1013.5 |
| 20260510043728 | 52 | 183 | 0.0 | 0.0 | 0.01 | 0.06 | 0.01 | 91 | 1013.4 |
| 20260510043233 | 52 | 183 | 0.0 | 0.0 | 0.01 | 0.06 | 0.01 | 91 | 1013.5 |
| 20260510042732 | 52 | 183 | 0.0 | 0.0 | 0.01 | 0.06 | 0.01 | 91 | 1013.5 |
| 20260510042236 | 52 | 183 | 0.0 | 0.0 | 0.01 | 0.06 | 0.01 | 91 | 1013.6 |
| 20260510041725 | 52 | 186 | 0.0 | 0.0 | 0.01 | 0.06 | 0.01 | 91 | 1013.5 |
| 20260510041242 | 52 | 192 | 0.0 | 0.0 | 0.01 | 0.06 | 0.01 | 90 | 1013.5 |
| 20260510040716 | 52 | 192 | 0.0 | 0.0 | 0.01 | 0.06 | 0.01 | 90 | 1013.6 |
| 20260510040242 | 52 | 194 | 0.0 | 0.0 | 0.00 | 0.06 | 0.00 | 91 | 1013.5 |
| 20260510035737 | 52 | 196 | 0.0 | 0.0 | 0.00 | 0.06 | 0.00 | 91 | 1013.5 |
| 20260510035240 | 52 | 195 | 0.0 | 0.0 | 0.00 | 0.06 | 0.00 | 91 | 1013.5 |
| 20260510034729 | 52 | 195 | 0.0 | 0.0 | 0.00 | 0.06 | 0.00 | 91 | 1013.6 |
| 20260510034232 | 52 | 196 | 0.0 | 0.0 | 0.00 | 0.06 | 0.00 | 91 | 1013.7 |
| 20260510033729 | 52 | 196 | 0.0 | 0.0 | 0.00 | 0.06 | 0.00 | 91 | 1013.8 |
| 20260510033234 | 51 | 196 | 0.0 | 0.0 | 0.00 | 0.06 | 0.00 | 91 | 1013.7 |
| 20260510032720 | 51 | 196 | 0.0 | 0.0 | 0.00 | 0.06 | 0.00 | 91 | 1013.7 |
| 20260510032238 | 51 | 196 | 0.0 | 0.0 | 0.00 | 0.06 | 0.00 | 90 | 1013.7 |
| 20260510031732 | 51 | 196 | 0.0 | 0.0 | 0.00 | 0.06 | 0.00 | 90 | 1013.7 |
| 20260510031223 | 51 | 196 | 0.0 | 0.0 | 0.00 | 0.06 | 0.00 | 90 | 1013.6 |
| 20260510030721 | 50 | 196 | 0.0 | 0.0 | 0.00 | 0.06 | 0.00 | 90 | 1013.7 |
| 20260510030232 | 50 | 196 | 0.0 | 0.0 | 0.00 | 0.06 | 0.00 | 90 | 1013.7 |
| 20260510025740 | 50 | 196 | 0.0 | 0.0 | 0.00 | 0.06 | 0.00 | 90 | 1013.8 |
| 20260510025231 | 50 | 196 | 0.0 | 0.0 | 0.00 | 0.06 | 0.00 | 89 | 1013.8 |
| 20260510024737 | 50 | 196 | 0.0 | 0.0 | 0.00 | 0.06 | 0.00 | 89 | 1013.8 |
| 20260510024245 | 50 | 196 | 0.0 | 0.0 | 0.00 | 0.06 | 0.00 | 89 | 1013.9 |
| 20260510023726 | 50 | 196 | 0.0 | 0.0 | 0.00 | 0.06 | 0.00 | 89 | 1013.8 |
| 20260510023246 | 50 | 196 | 0.0 | 0.0 | 0.00 | 0.06 | 0.00 | 89 | 1013.8 |
| 20260510022743 | 50 | 196 | 0.0 | 0.0 | 0.00 | 0.06 | 0.00 | 88 | 1013.9 |
| 20260510022237 | 50 | 196 | 0.0 | 0.0 | 0.00 | 0.06 | 0.00 | 88 | 1013.9 |
| 20260510021730 | 50 | 196 | 0.0 | 0.0 | 0.00 | 0.06 | 0.00 | 88 | 1014.0 |
| 20260510021231 | 50 | 196 | 0.0 | 0.0 | 0.00 | 0.06 | 0.00 | 88 | 1014.0 |
| 20260510020740 | 50 | 196 | 0.0 | 0.0 | 0.00 | 0.06 | 0.00 | 87 | 1014.0 |
| 20260510020217 | 50 | 196 | 0.0 | 0.0 | 0.00 | 0.06 | 0.00 | 87 | 1014.0 |
| 20260510015738 | 51 | 196 | 0.0 | 0.0 | 0.00 | 0.06 | 0.00 | 86 | 1014.1 |
| 20260510015237 | 51 | 196 | 0.0 | 0.0 | 0.00 | 0.06 | 0.00 | 86 | 1014.0 |
| 20260510014733 | 51 | 196 | 0.0 | 0.0 | 0.00 | 0.06 | 0.00 | 86 | 1013.9 |
| 20260510014229 | 51 | 196 | 0.0 | 0.0 | 0.00 | 0.06 | 0.00 | 85 | 1013.9 |
| 20260510013731 | 52 | 196 | 0.0 | 0.0 | 0.00 | 0.06 | 0.00 | 85 | 1013.8 |
| 20260510013230 | 52 | 196 | 0.0 | 0.0 | 0.00 | 0.06 | 0.00 | 85 | 1014.0 |
| 20260510012741 | 52 | 196 | 0.0 | 0.0 | 0.00 | 0.06 | 0.00 | 85 | 1014.0 |
| 20260510012241 | 52 | 196 | 0.0 | 0.0 | 0.00 | 0.06 | 0.00 | 85 | 1013.9 |
| 20260510011733 | 52 | 196 | 0.0 | 0.0 | 0.00 | 0.06 | 0.00 | 85 | 1014.0 |
| 20260510011230 | 52 | 196 | 0.0 | 0.0 | 0.00 | 0.06 | 0.00 | 85 | 1014.1 |
| 20260510010737 | 52 | 197 | 0.0 | 0.0 | 0.00 | 0.06 | 0.00 | 84 | 1014.3 |
| 20260510010238 | 52 | 197 | 0.0 | 0.0 | 0.00 | 0.06 | 0.00 | 84 | 1014.4 |
| 20260510005734 | 53 | 197 | 0.0 | 0.0 | 0.00 | 0.06 | 0.00 | 84 | 1014.4 |
| 20260510005238 | 53 | 198 | 0.0 | 0.0 | 0.00 | 0.06 | 0.00 | 84 | 1014.3 |
| 20260510004736 | 53 | 198 | 0.0 | 0.0 | 0.00 | 0.06 | 0.00 | 83 | 1014.3 |
| 20260510004217 | 53 | 198 | 0.0 | 0.0 | 0.00 | 0.06 | 0.00 | 83 | 1014.4 |
| 20260510003724 | 53 | 228 | 0.0 | 0.0 | 0.00 | 0.06 | 0.00 | 83 | 1014.4 |
| 20260510003223 | 53 | 229 | 0.0 | 0.0 | 0.00 | 0.06 | 0.00 | 83 | 1014.4 |
| 20260510002725 | 53 | 229 | 0.0 | 0.0 | 0.00 | 0.06 | 0.00 | 83 | 1014.4 |
| 20260510002238 | 53 | 219 | 0.0 | 0.0 | 0.00 | 0.06 | 0.00 | 83 | 1014.5 |
| 20260510001739 | 53 | 218 | 0.0 | 0.0 | 0.00 | 0.06 | 0.00 | 83 | 1014.5 |
| 20260510001231 | 53 | 242 | 0.0 | 0.0 | 0.00 | 0.06 | 0.00 | 83 | 1014.5 |
| 20260510000737 | 53 | 209 | 0.0 | 0.0 | 0.00 | 0.06 | 0.00 | 82 | 1014.5 |
| 20260510000245 | 53 | 209 | 0.0 | 0.0 | 0.00 | 0.06 | 0.00 | 82 | 1014.5 |
| 20260509235726 | 53 | 210 | 0.0 | 0.0 | 0.00 | 0.06 | 0.00 | 82 | 1014.5 |
| 20260509235225 | 53 | 267 | 0.0 | 0.0 | 0.00 | 0.06 | 0.00 | 82 | 1014.4 |
| 20260509234746 | 53 | 215 | 0.0 | 0.0 | 0.00 | 0.06 | 0.00 | 82 | 1014.5 |
| 20260509234228 | 53 | 211 | 0.0 | 0.0 | 0.00 | 0.06 | 0.00 | 82 | 1014.6 |
| 20260509233737 | 53 | 198 | 0.0 | 0.0 | 0.00 | 0.06 | 0.00 | 82 | 1014.6 |
| 20260509233303 | 53 | 223 | 0.0 | 0.0 | 0.00 | 0.06 | 0.00 | 82 | 1014.7 |
| 20260509232721 | 53 | 205 | 0.0 | 0.0 | 0.00 | 0.06 | 0.00 | 81 | 1014.7 |
| 20260509232258 | 53 | 225 | 0.0 | 0.0 | 0.00 | 0.06 | 0.00 | 82 | 1014.7 |
| 20260509231730 | 53 | 195 | 0.0 | 0.0 | 0.00 | 0.06 | 0.00 | 81 | 1014.7 |
| 20260509231233 | 53 | 189 | 0.0 | 0.0 | 0.00 | 0.06 | 0.00 | 81 | 1014.8 |
| 20260509230742 | 53 | 188 | 0.0 | 0.0 | 0.00 | 0.06 | 0.00 | 81 | 1014.8 |
| 20260509230219 | 53 | 182 | 0.0 | 0.0 | 0.00 | 0.06 | 0.00 | 81 | 1014.7 |
| 20260509225739 | 54 | 182 | 0.0 | 0.0 | 0.00 | 0.06 | 0.00 | 81 | 1014.8 |
| 20260509225230 | 54 | 183 | 0.0 | 0.0 | 0.00 | 0.06 | 0.00 | 81 | 1014.7 |
| 20260509224728 | 54 | 230 | 0.0 | 0.0 | 0.00 | 0.06 | 0.00 | 81 | 1014.6 |
| 20260509224230 | 54 | 185 | 0.0 | 0.0 | 0.00 | 0.06 | 0.00 | 81 | 1014.6 |
| 20260509223735 | 54 | 194 | 0.0 | 0.0 | 0.00 | 0.06 | 0.00 | 81 | 1014.5 |
| 20260509223235 | 54 | 200 | 0.0 | 0.0 | 0.00 | 0.06 | 0.00 | 81 | 1014.6 |
| 20260509222738 | 54 | 192 | 0.0 | 0.0 | 0.00 | 0.06 | 0.00 | 81 | 1014.6 |
| 20260509222240 | 54 | 193 | 0.0 | 0.0 | 0.00 | 0.06 | 0.00 | 81 | 1014.6 |
| 20260509221729 | 54 | 198 | 0.0 | 0.0 | 0.00 | 0.06 | 0.00 | 81 | 1014.7 |
| 20260509221224 | 55 | 224 | 0.0 | 0.0 | 0.00 | 0.06 | 0.00 | 80 | 1014.6 |
| 20260509220737 | 55 | 224 | 0.0 | 0.0 | 0.00 | 0.06 | 0.00 | 80 | 1014.6 |
| 20260509220220 | 55 | 224 | 0.0 | 0.0 | 0.00 | 0.06 | 0.00 | 80 | 1014.6 |
| 20260509215728 | 55 | 196 | 0.0 | 0.0 | 0.00 | 0.06 | 0.06 | 81 | 1014.4 |
| 20260509215235 | 55 | 196 | 0.0 | 0.0 | 0.00 | 0.06 | 0.06 | 81 | 1014.4 |
| 20260509214718 | 55 | 188 | 0.0 | 0.0 | 0.00 | 0.06 | 0.06 | 81 | 1014.3 |
| 20260509214226 | 55 | 186 | 0.0 | 0.0 | 0.00 | 0.06 | 0.06 | 81 | 1014.2 |
| 20260509213721 | 55 | 186 | 0.0 | 0.0 | 0.00 | 0.06 | 0.06 | 81 | 1014.2 |
| 20260509213217 | 55 | 186 | 0.0 | 0.0 | 0.00 | 0.06 | 0.06 | 81 | 1014.2 |
| 20260509212742 | 55 | 186 | 0.0 | 0.0 | 0.00 | 0.06 | 0.06 | 82 | 1014.1 |
| 20260509212227 | 55 | 186 | 0.0 | 0.0 | 0.00 | 0.06 | 0.06 | 82 | 1014.1 |
| 20260509211732 | 55 | 186 | 0.0 | 0.0 | 0.00 | 0.06 | 0.06 | 82 | 1014.0 |
| 20260509211223 | 55 | 186 | 0.0 | 0.0 | 0.00 | 0.06 | 0.06 | 81 | 1013.9 |
| 20260509210759 | 55 | 186 | 0.0 | 0.0 | 0.00 | 0.06 | 0.06 | 81 | 1013.9 |
| 20260509210302 | 55 | 186 | 0.0 | 0.0 | 0.00 | 0.06 | 0.06 | 82 | 1013.9 |
| 20260509205734 | 55 | 186 | 0.0 | 0.0 | 0.00 | 0.06 | 0.06 | 81 | 1013.9 |
| 20260509205234 | 55 | 186 | 0.0 | 0.0 | 0.00 | 0.06 | 0.06 | 81 | 1013.8 |
| 20260509204733 | 55 | 186 | 0.0 | 0.0 | 0.00 | 0.06 | 0.06 | 81 | 1013.8 |
| 20260509204258 | 55 | 186 | 0.0 | 0.0 | 0.00 | 0.06 | 0.06 | 81 | 1013.7 |
| 20260509203721 | 55 | 186 | 0.0 | 0.0 | 0.00 | 0.06 | 0.06 | 81 | 1013.7 |
| 20260509203223 | 55 | 186 | 0.0 | 0.0 | 0.00 | 0.06 | 0.06 | 80 | 1013.5 |
| 20260509202721 | 55 | 186 | 0.0 | 0.0 | 0.00 | 0.06 | 0.06 | 80 | 1013.3 |
| 20260509202232 | 55 | 186 | 0.0 | 0.0 | 0.00 | 0.06 | 0.06 | 79 | 1013.1 |
| 20260509201737 | 55 | 187 | 0.0 | 0.0 | 0.00 | 0.06 | 0.06 | 78 | 1013.1 |
| 20260509201238 | 56 | 187 | 0.0 | 0.0 | 0.00 | 0.06 | 0.06 | 77 | 1013.1 |
| 20260509200736 | 56 | 187 | 0.0 | 0.0 | 0.00 | 0.06 | 0.06 | 77 | 1013.0 |
| 20260509200223 | 56 | 187 | 0.0 | 0.0 | 0.00 | 0.06 | 0.06 | 76 | 1012.9 |
| 20260509195746 | 56 | 187 | 0.0 | 0.0 | 0.00 | 0.06 | 0.06 | 76 | 1012.8 |